Regional Weather Roundup
Issued by NWS

Home | Current Version | Previous Version | Text Only | Print | Product List | Glossary On
Versions: 1 2 3 4 5 6 7 8 9 10 11 12 13 14 15 16 17 18 19 20 21 22 23 24 25 26 27 28 29 30 31 32 33 34 35 36 37 38 39 40 41 42 43 44 45 46 47 48 49 50
000
ASUS46 KPQR 061310
RWROR

OREGON REGIONAL WEATHER ROUNDUP
NATIONAL WEATHER SERVICE PORTLAND OR
600 AM PDT WED MAY 06 2015

NOTE: "FAIR" INDICATES FEW OR NO CLOUDS BELOW 12,000 FEET WITH
NO SIGNIFICANT WEATHER AND/OR OBSTRUCTIONS TO VISIBILITY.

ORZ001>013-061400-
NORTHWEST OREGON


CITY           SKY/WX    TMP DP  RH WIND       PRES   REMARKS
ASTORIA        PTCLDY    43  42  97 S3        30.10F
NEWPORT        RAIN      45  43  93 CALM      30.14
PORTLAND       DRIZZLE   48  44  86 CALM      30.11S
VANCOUVER WA   CLOUDY    48  43  82 CALM      30.10F
SCAPPOOSE      CLOUDY    45  43  93 CALM      30.10S
HILLSBORO      CLOUDY    46  44  93 CALM      30.10S
AURORA         CLOUDY    45  43  93 CALM      30.12S
MCMINNVILLE    CLOUDY    45  43  93 SW3       30.11S
SALEM          LGT RAIN  45  43  93 CALM      30.11S
CORVALLIS      CLOUDY    43  39  87 CALM      30.12S
EUGENE         MOCLDY    39  37  92 S5        30.12S
$$

ORZ021-028-061400-
SOUTHWEST OREGON


CITY           SKY/WX    TMP DP  RH WIND       PRES   REMARKS
NORTH BEND     MOCLDY    46  45  93 SE3       30.14S
BROOKINGS      CLEAR     46  38  74 CALM      30.05R
ROSEBURG       CLOUDY    47  41  80 CALM      30.11F
SEXTON SUMMIT  FOG       34  33  96 MISG      30.01F VSB 1/4
MEDFORD        CLEAR     40  34  79 CALM      30.06S
$$

ORZ014>016-041-061400-
COLUMBIA GORGE


CITY           SKY/WX    TMP DP  RH WIND       PRES   REMARKS
TROUTDALE      CLOUDY    47  44  90 SE3       30.10S
THE DALLES     CLOUDY    49  39  68 W9        30.05S
$$

ORZ029>031-041-044-049-050-061>064-502-503-505>511-061400-
EASTERN OREGON


CITY           SKY/WX    TMP DP  RH WIND       PRES   REMARKS
REDMOND        CLEAR     29  25  85 S5        30.01F WCI  24
BEND           CLEAR     32  27  80 CALM      30.01F
PRINEVILLE     CLEAR     27  23  86 CALM      30.01S
KLAMATH FALLS  CLEAR     25  21  85 E3        29.99S
LAKEVIEW       MOCLDY    36  23  60 N17G24    29.97S WCI  25
HERMISTON      CLEAR     41  34  76 SW9       30.01F
PENDLETON      CLEAR     42  31  64 SW3       30.01R
JOHN DAY       PTCLDY    36  31  81 W7        29.99R WCI  30
MEACHAM        PTCLDY    27  24  89 CALM      29.99R
LA GRANDE      CLEAR     39  16  38 NW10      29.98S WCI  32
BAKER CITY     CLEAR     32  25  75 S3        29.97S
BURNS          CLEAR     30  24  78 W9        29.96F WCI  22
ROME             N/A     43  18  36 NE7       29.90S
ONTARIO        PTCLDY    46  27  47 NW16      29.92F
$$


USA.gov is the U.S. government's official web portal to all federal, state and local government web resources and services.